Find Local Weather

World > North America > United States > New York

Amawalk, New York Regional Weather

Lat: 41.29N, Lon: 73.77W
Wx Zone: NYZ070
Feedback

Amawalk, NY Regional Weather

Expires:201905270000;;513015
ASUS41 KALY 262310
RWRALY

NEW YORK STATE HOURLY WEATHER ROUNDUP
NATIONAL WEATHER SERVICE ALBANY NY
700 PM EDT SUN MAY 26 2019

NOTE: "FAIR" INDICATES FEW OR NO CLOUDS BELOW 12,000 FEET WITH NO
SIGNIFICANT WEATHER AND/OR NO OBSTRUCTIONS TO VISIBILITY.


NYZ032-033-038>043-046>054-057>066-NYZ062>081-082-084-270000-
EAST

  
CITY           SKY/WX    TMP DP  RH WIND       PRES   REMARKS
ALBANY         PTSUNNY   79  51  37 NW13G24   29.84R                  
GLENS FALLS    PTSUNNY   78  49  35 NW8       29.81R                  
POUGHKEEPSIE   FAIR      71  60  68 SW7       29.83F                  
NEWBURGH       PTSUNNY   66  64  94 NW7       29.87F                  
MONTGOMERY     FAIR      65  64  97 S8        29.86R                  
WHITE PLAINS   PTSUNNY   69  64  84 W6        29.86S                  
ISLIP          LGT RAIN  73  65  75 W21G26    29.87R                  
NEW YORK CITY  CLOUDY    73  65  75 VRB5      29.88F                  
CENTRAL PARK   CLOUDY    69  67  93 CALM        N/A                   
$$


SKY/WX - Weather  TMP - Temperature  DP - Dew Point  RH - Relative Humidity
WIND - Wind Direction/Speed PRES - Barometric Pressure VSB - Visibility
WCI - Wind Chill Index E13G22 Wind - East Wind 13 mph/Gusts of 22 mph